Location: Brachbach
(49.1847°N, 9.7240°E)
Time: 12:06:08
(UTC+00:00)

LilacSat-2 - Visible Passes

Search period start: 15 March 2026 00:00
Search period end: 25 March 2026 00:00
Orbit: 418 x 426 km, 97.5° (Epoch: 15 March)

Date Brightness Start Highest point End Pass type
(mag) Time Alt. Az. Time Alt. Az. Time Alt. Az.
15 Mar ? 18:59:20 10° SSW 19:02:14 29° W 19:05:09 10° NNW visible
16 Mar ? 18:15:20 10° SSE 18:18:34 72° ENE 18:21:51 10° N visible
17 Mar ? 19:04:25 10° SSW 19:07:13 26° W 19:10:02 10° NW visible
18 Mar ? 18:20:12 10° SSE 18:23:28 83° ENE 18:26:44 10° NNW visible
19 Mar ? 19:09:22 10° SSW 19:12:02 23° W 19:14:43 10° NW visible
20 Mar ? 18:24:55 10° SSE 18:28:10 86° WSW 18:31:28 10° NNW visible
21 Mar ? 19:14:10 10° SW 19:16:42 21° W 19:19:15 10° NW visible
22 Mar ? 18:29:30 10° S 18:32:44 76° W 18:36:00 10° NNW visible
23 Mar ? 19:18:50 10° SW 19:21:13 19° W 19:23:36 10° NW visible
24 Mar ? 18:33:55 10° S 18:37:08 67° WSW 18:40:23 10° NNW visible
